Rotterdam, Netherlands

7:08 AM CET on December 16, 2017 (GMT +0100)
Rotterdam

Weather History for EHRD - February, 2014

Change the Weather History Date:

Tuesday, February 4, 2014

  Actual Average Record
Temperature  
Mean Temperature 44 °F -  
Max Temperature 49 °F 44 °F 60 °F (2004)
Min Temperature 38 °F 33 °F 3 °F (2012)
Degree Days  
Heating Degree Days 22    
Moisture  
Dew Point 36 °F    
Average Humidity 73    
Maximum Humidity 87    
Minimum Humidity 54    
Precipitation  
Precipitation 0.00 in - - ()
Sea Level Pressure  
Sea Level Pressure 29.64 in    
Wind  
Wind Speed 13 mph ()    
Max Wind Speed 21 mph    
Max Gust Speed 29 mph    
Visibility 8.8 miles    
Events      
Averages and records for this station are not official NWS values.
T = Trace of Precipitation, MM = Missing Value Source: Averaged Metar Reports

Daily Weather History Graph

Daily Weather History Graph

Search for Another Location

Airport or City:

Trip Planner

Search our weather history database for the weather conditions in past years. The results will help you decide how hot, cold, wet, or windy it might be!

Date:

Astronomy

Feb. 04, 2014 Rise Set
Actual Time 8:17 AM CET 5:35 PM CET
Civil Twilight 7:41 AM CET 6:11 PM CET
Nautical Twilight 7:00 AM CET 6:52 PM CET
Astronomical Twilight 6:21 AM CET 7:31 PM CET
Moon 10:02 AM CET (2/4) No Moon Set
Length of Visible Light 10h 30m
Length of Day
9h 18m
Waxing Crescent, 26% of the Moon is Illuminated
Feb 4
Waxing Crescent
Feb 6
First Quarter
Feb 15
Full
Feb 22
Last Quarter
Mar 1
New

Hourly Weather History & Observations

Time (CET) Temp. Windchill Dew Point Humidity Pressure Visibility Wind Dir Wind Speed Gust Speed Precip Events Conditions
12:00 AM 41 °F - 35 °F 73% 29.64 in 11 mi SE 11.2 mph - -   Overcast
12:25 AM 41.0 °F 34.7 °F 35.6 °F 81% 29.62 in 6.2 mi SE 10.4 mph - N/A   Overcast
12:55 AM 41.0 °F 34.3 °F 35.6 °F 81% 29.62 in 6.2 mi SE 11.5 mph - N/A   Unknown
1:00 AM 40 °F - 35 °F 75% 29.63 in 9 mi SE 11.2 mph - -   Partly Cloudy
1:25 AM 41.0 °F 33.1 °F 35.6 °F 81% 29.62 in 6.2 mi SSE 15.0 mph - N/A   Unknown
1:55 AM 41.0 °F 33.1 °F 35.6 °F 81% 29.62 in 6.2 mi SSE 15.0 mph - N/A   Unknown
2:00 AM 40 °F - 35 °F 75% 29.62 in 7 mi SSE 13.4 mph - -  
2:25 AM 39.2 °F 30.8 °F 35.6 °F 87% 29.62 in 6.2 mi SSE 15.0 mph - N/A   Unknown
2:55 AM 39.2 °F 31.2 °F 33.8 °F 81% 29.59 in 6.2 mi SSE 13.8 mph - N/A   Unknown
3:00 AM 39 °F - 35 °F 78% 29.61 in 7 mi SSE 13.4 mph - -  
3:25 AM 39.2 °F 31.2 °F 33.8 °F 81% 29.59 in 6.2 mi SSE 13.8 mph - N/A   Unknown
3:55 AM 39.2 °F 31.2 °F 33.8 °F 81% 29.59 in 6.2 mi SSE 13.8 mph - N/A   Unknown
4:00 AM 39 °F - 34 °F 76% 29.60 in 7 mi SSE 13.4 mph - -  
4:25 AM 39.2 °F 30.8 °F 33.8 °F 81% 29.59 in 6.2 mi SSE 15.0 mph - N/A   Unknown
4:55 AM 39.2 °F 31.2 °F 33.8 °F 81% 29.59 in 6.2 mi SSE 13.8 mph - N/A   Overcast
5:00 AM 40 °F - 34 °F 73% 29.60 in 9 mi SSE 15.7 mph - -   Overcast
5:25 AM 39.2 °F 30.8 °F 33.8 °F 81% 29.59 in 6.2 mi SSE 15.0 mph - N/A   Scattered Clouds
5:55 AM 41.0 °F 32.8 °F 35.6 °F 81% 29.59 in 6.2 mi SSE 16.1 mph - N/A   Overcast
6:00 AM 41 °F - 35 °F 71% 29.60 in 12 mi South 17.9 mph - -   Overcast
6:25 AM 41.0 °F 32.8 °F 35.6 °F 81% 29.59 in 6.2 mi SSE 16.1 mph - N/A   Overcast
6:55 AM 41.0 °F 32.5 °F 35.6 °F 81% 29.59 in 6.2 mi South 17.3 mph - N/A   Overcast
7:00 AM 41 °F - 35 °F 73% 29.61 in 14 mi South 15.7 mph - -   Partly Cloudy
7:25 AM 41.0 °F 32.8 °F 35.6 °F 81% 29.59 in 6.2 mi South 16.1 mph - N/A   Mostly Cloudy
7:55 AM 41.0 °F 33.1 °F 35.6 °F 81% 29.62 in 6.2 mi South 15.0 mph - N/A   Overcast
8:00 AM 42 °F - 36 °F 73% 29.63 in 19 mi South 13.4 mph - -   Unknown Precipitation
8:25 AM 42.8 °F 36.2 °F 37.4 °F 81% 29.62 in 6.2 mi South 12.7 mph - N/A   Overcast
8:55 AM 42.8 °F 36.2 °F 37.4 °F 81% 29.62 in 6.2 mi South 12.7 mph - N/A   Overcast
9:00 AM 43 °F - 38 °F 74% 29.65 in 16 mi South 13.4 mph - -   Partly Cloudy
9:25 AM 42.8 °F 35.8 °F 37.4 °F 81% 29.65 in 6.2 mi South 13.8 mph - N/A   Mostly Cloudy
9:55 AM 42.8 °F 35.1 °F 39.2 °F 87% 29.65 in 6.2 mi SSW 16.1 mph - N/A   Unknown
10:00 AM 44 °F - 39 °F 76% 29.67 in 15 mi SSW 15.7 mph - -   Partly Cloudy
10:25 AM 44.6 °F 37.4 °F 39.2 °F 81% 29.68 in 6.2 mi SSW 16.1 mph - N/A   Partly Cloudy
10:55 AM 46.4 °F 39.5 °F 39.2 °F 76% 29.68 in 6.2 mi SSW 17.3 mph 28.8 mph N/A   Mostly Cloudy
11:00 AM 45 °F - 39 °F 74% 29.70 in 16 mi SSW 20.1 mph - -   Partly Cloudy
11:25 AM 46.4 °F 38.7 °F 41.0 °F 81% 29.68 in 6.2 mi SSW 20.7 mph - N/A   Mostly Cloudy
11:55 AM 46.4 °F 39.5 °F 39.2 °F 76% 29.71 in 6.2 mi SSW 17.3 mph - N/A   Partly Cloudy
12:00 PM 46 °F - 39 °F 68% 29.73 in 16 mi SSW 15.7 mph - -   Partly Cloudy
12:25 PM 46.4 °F 39.8 °F 39.2 °F 76% 29.71 in 6.2 mi South 16.1 mph - N/A   Unknown
12:55 PM 46.4 °F 40.1 °F 39.2 °F 76% 29.71 in 6.2 mi South 15.0 mph - N/A   Unknown
1:00 PM 47 °F - 39 °F 64% 29.73 in 17 mi South 15.7 mph - -   Partly Cloudy
1:25 PM 48.2 °F - 37.4 °F 66% 29.71 in 6.2 mi South 16.1 mph - N/A   Partly Cloudy
1:55 PM 48.2 °F - 39.2 °F 71% 29.71 in 6.2 mi South 17.3 mph - N/A   Unknown
2:00 PM 48 °F - 38 °F 60% 29.71 in 15 mi South 15.7 mph - -  
2:25 PM 48.2 °F - 37.4 °F 66% 29.68 in 6.2 mi South 16.1 mph - N/A   Unknown
2:55 PM 50.0 °F - 39.2 °F 66% 29.68 in 6.2 mi South 16.1 mph - N/A   Unknown
3:00 PM 48 °F - 37 °F 55% 29.70 in 16 mi South 15.7 mph - -   Scattered Clouds
3:25 PM 50.0 °F - 37.4 °F 62% 29.68 in 6.2 mi South 17.3 mph - N/A   Scattered Clouds
3:55 PM 48.2 °F - 35.6 °F 62% 29.68 in 6.2 mi South 18.4 mph - N/A   Partly Cloudy
4:00 PM 48 °F - 36 °F 54% 29.69 in 19 mi South 17.9 mph - -   Mostly Cloudy
4:25 PM 48.2 °F - 37.4 °F 66% 29.68 in 6.2 mi South 13.8 mph - N/A   Overcast
4:55 PM 46.4 °F 40.4 °F 37.4 °F 71% 29.68 in 6.2 mi South 13.8 mph - N/A   Partly Cloudy
5:00 PM 47 °F - 37 °F 59% 29.68 in 16 mi South 13.4 mph - -   Scattered Clouds
5:25 PM 46.4 °F 39.5 °F 37.4 °F 71% 29.65 in 6.2 mi South 17.3 mph - N/A   Unknown
5:55 PM 46.4 °F 39.8 °F 35.6 °F 66% 29.65 in 6.2 mi South 16.1 mph - N/A   Partly Cloudy
6:00 PM 46 °F - 36 °F 57% 29.67 in 22 mi South 15.7 mph - -   Mostly Cloudy
6:25 PM 46.4 °F 40.4 °F 35.6 °F 66% 29.65 in 6.2 mi South 13.8 mph - N/A   Mostly Cloudy
6:55 PM 46.4 °F 39.5 °F 35.6 °F 66% 29.65 in 6.2 mi SSE 17.3 mph - N/A   Mostly Cloudy
7:00 PM 45 °F - 35 °F 59% 29.66 in 28 mi South 15.7 mph - -   Partly Cloudy
7:25 PM 44.6 °F 37.8 °F 35.6 °F 71% 29.65 in 6.2 mi South 15.0 mph - N/A   Mostly Cloudy
7:55 PM 44.6 °F 38.8 °F 37.4 °F 76% 29.62 in 6.2 mi SSE 11.5 mph - N/A   Unknown
8:00 PM 45 °F - 36 °F 63% 29.64 in 19 mi SSE 13.4 mph - -   Scattered Clouds
8:25 PM 44.6 °F 38.4 °F 37.4 °F 76% 29.62 in 6.2 mi SSE 12.7 mph - N/A   Unknown
8:55 PM 44.6 °F 38.4 °F 35.6 °F 71% 29.62 in 6.2 mi SSE 12.7 mph - N/A   Unknown
9:00 PM 44 °F - 36 °F 64% 29.62 in 19 mi SSE 13.4 mph - -  
9:25 PM 44.6 °F 38.1 °F 35.6 °F 71% 29.59 in 6.2 mi SSE 13.8 mph - N/A   Unknown
9:55 PM 44.6 °F 38.1 °F 35.6 °F 71% 29.59 in 6.2 mi SSE 13.8 mph - N/A   Unknown
10:00 PM 43 °F - 36 °F 68% 29.59 in 19 mi SE 13.4 mph - -  
10:25 PM 42.8 °F 35.8 °F 35.6 °F 76% 29.56 in 6.2 mi SE 13.8 mph - N/A   Unknown
10:55 PM 42.8 °F 34.8 °F 35.6 °F 76% 29.56 in 6.2 mi SE 17.3 mph - N/A   Unknown
11:00 PM 43 °F - 36 °F 67% 29.56 in 17 mi SE 15.7 mph - -  
11:25 PM 42.8 °F 35.1 °F 35.6 °F 76% 29.53 in 6.2 mi SE 16.1 mph - N/A   Unknown
11:55 PM 42.8 °F 35.1 °F 35.6 °F 76% 29.53 in 6.2 mi SE 16.1 mph - N/A   Unknown